owner,sensor,date,latitude,longitude,vertical_datum,sea_water_practical_salinity,qcFlag 
SCCF RECON,ioos:station:SCCF:51:1,2009-12-01T00:00:00Z,26.5545,-82.1715,2.11,34.89,1111122 
SCCF RECON,ioos:station:SCCF:51:1,2009-12-01T01:00:00Z,26.5545,-82.1715,2.19,34.88,1111122 
SCCF RECON,ioos:station:SCCF:51:1,2009-12-01T02:00:00Z,26.5545,-82.1715,2.27,34.83,1111122 
SCCF RECON,ioos:station:SCCF:51:1,2009-12-01T03:00:00Z,26.5545,-82.1715,2.33,34.84,1111122 
SCCF RECON,ioos:station:SCCF:51:1,2009-12-01T04:00:00Z,26.5545,-82.1715,2.343,34.85,1111122 
SCCF RECON,ioos:station:SCCF:51:1,2009-12-01T05:00:00Z,26.5545,-82.1715,2.28,34.84,1111122 
SCCF RECON,ioos:station:SCCF:51:1,2009-12-01T06:00:00Z,26.5545,-82.1715,2.177,34.87,1111122 
SCCF RECON,ioos:station:SCCF:51:1,2009-12-01T07:00:00Z,26.5545,-82.1715,2.04,34.77,1111122 
SCCF RECON,ioos:station:SCCF:51:1,2009-12-01T08:00:00Z,26.5545,-82.1715,1.878,34.73,1111122 
SCCF RECON,ioos:station:SCCF:51:1,2009-12-01T09:00:00Z,26.5545,-82.1715,1.73,34.7,1111122 
SCCF RECON,ioos:station:SCCF:51:1,2009-12-01T10:00:00Z,26.5545,-82.1715,1.6,34.73,1111122 
SCCF RECON,ioos:station:SCCF:51:1,2009-12-01T11:00:00Z,26.5545,-82.1715,1.49,34.72,1111122 
SCCF RECON,ioos:station:SCCF:51:1,2009-12-01T12:00:00Z,26.5545,-82.1715,1.436,34.62,1111122 
SCCF RECON,ioos:station:SCCF:51:1,2009-12-01T13:00:00Z,26.5545,-82.1715,1.5,34.57,1111122 
SCCF RECON,ioos:station:SCCF:51:1,2009-12-01T14:00:00Z,26.5545,-82.1715,1.615,34.6,1111122 
SCCF RECON,ioos:station:SCCF:51:1,2009-12-01T15:00:00Z,26.5545,-82.1715,1.78,34.87,1111122 
SCCF RECON,ioos:station:SCCF:51:1,2009-12-01T16:00:00Z,26.5545,-82.1715,1.916,34.89,1111122 
SCCF RECON,ioos:station:SCCF:51:1,2009-12-01T17:00:00Z,26.5545,-82.1715,2.02,34.79,1111122 
SCCF RECON,ioos:station:SCCF:51:1,2009-12-01T18:00:00Z,26.5545,-82.1715,2.061,34.93,1111122 
SCCF RECON,ioos:station:SCCF:51:1,2009-12-01T19:00:00Z,26.5545,-82.1715,2.042,34.95,1111122 
SCCF RECON,ioos:station:SCCF:51:1,2009-12-01T20:00:00Z,26.5545,-82.1715,1.995,34.84,1111122 
SCCF RECON,ioos:station:SCCF:51:1,2009-12-01T21:00:00Z,26.5545,-82.1715,1.953,34.78,1111122 
SCCF RECON,ioos:station:SCCF:51:1,2009-12-01T22:00:00Z,26.5545,-82.1715,1.939,34.76,1111122 
SCCF RECON,ioos:station:SCCF:51:1,2009-12-01T23:00:00Z,26.5545,-82.1715,1.98,34.81,1111122 
SCCF RECON,ioos:station:SCCF:51:1,2009-12-02T00:00:00Z,26.5545,-82.1715,2.07,34.89,1111122 
SCCF RECON,ioos:station:SCCF:51:1,2009-12-02T01:00:00Z,26.5545,-82.1715,2.178,34.92,1111122 
SCCF RECON,ioos:station:SCCF:51:1,2009-12-02T02:00:00Z,26.5545,-82.1715,2.29,34.92,1111122 
SCCF RECON,ioos:station:SCCF:51:1,2009-12-02T03:00:00Z,26.5545,-82.1715,2.38,34.92,1111122 
SCCF RECON,ioos:station:SCCF:51:1,2009-12-02T04:00:00Z,26.5545,-82.1715,2.42,34.95,1111122 
SCCF RECON,ioos:station:SCCF:51:1,2009-12-02T05:00:00Z,26.5545,-82.1715,2.389,34.94,1111122 
SCCF RECON,ioos:station:SCCF:51:1,2009-12-02T06:00:00Z,26.5545,-82.1715,2.303,34.94,1111122 
SCCF RECON,ioos:station:SCCF:51:1,2009-12-02T07:00:00Z,26.5545,-82.1715,2.187,34.94,1111122 
SCCF RECON,ioos:station:SCCF:51:1,2009-12-02T08:00:00Z,26.5545,-82.1715,2.046,34.7,1111122 
SCCF RECON,ioos:station:SCCF:51:1,2009-12-02T09:00:00Z,26.5545,-82.1715,1.886,34.66,1111122 
SCCF RECON,ioos:station:SCCF:51:1,2009-12-02T10:00:00Z,26.5545,-82.1715,1.745,34.49,1111122 
SCCF RECON,ioos:station:SCCF:51:1,2009-12-02T11:00:00Z,26.5545,-82.1715,1.618,34.46,1111122 
SCCF RECON,ioos:station:SCCF:51:1,2009-12-02T12:00:00Z,26.5545,-82.1715,1.525,34.38,1111122 
SCCF RECON,ioos:station:SCCF:51:1,2009-12-02T13:00:00Z,26.5545,-82.1715,1.495,34.55,1111122 
SCCF RECON,ioos:station:SCCF:51:1,2009-12-02T14:00:00Z,26.5545,-82.1715,1.607,34.58,1111122 
SCCF RECON,ioos:station:SCCF:51:1,2009-12-02T15:00:00Z,26.5545,-82.1715,1.772,34.59,1111122 
SCCF RECON,ioos:station:SCCF:51:1,2009-12-02T16:00:00Z,26.5545,-82.1715,1.931,34.62,1111122 
SCCF RECON,ioos:station:SCCF:51:1,2009-12-02T17:00:00Z,26.5545,-82.1715,2.038,34.97,1111122 
SCCF RECON,ioos:station:SCCF:51:1,2009-12-02T18:00:00Z,26.5545,-82.1715,2.108,34.99,1111122 
SCCF RECON,ioos:station:SCCF:51:1,2009-12-02T19:00:00Z,26.5545,-82.1715,2.133,34.77,1111122 
SCCF RECON,ioos:station:SCCF:51:1,2009-12-02T20:00:00Z,26.5545,-82.1715,2.125,35.03,1111122 
SCCF RECON,ioos:station:SCCF:51:1,2009-12-02T21:00:00Z,26.5545,-82.1715,2.102,34.59,1111122 
SCCF RECON,ioos:station:SCCF:51:1,2009-12-02T22:00:00Z,26.5545,-82.1715,2.07,34.18,1111122 
SCCF RECON,ioos:station:SCCF:51:1,2009-12-02T23:00:00Z,26.5545,-82.1715,2.085,34.1,1111122 
SCCF RECON,ioos:station:SCCF:51:1,2009-12-03T00:00:00Z,26.5545,-82.1715,2.113,34.0,1111122 
SCCF RECON,ioos:station:SCCF:51:1,2009-12-03T01:00:00Z,26.5545,-82.1715,2.172,34.02,1111122 
SCCF RECON,ioos:station:SCCF:51:1,2009-12-03T02:00:00Z,26.5545,-82.1715,2.254,34.64,1111122 
SCCF RECON,ioos:station:SCCF:51:1,2009-12-03T03:00:00Z,26.5545,-82.1715,2.346,34.97,1111122 
SCCF RECON,ioos:station:SCCF:51:1,2009-12-03T04:00:00Z,26.5545,-82.1715,2.391,34.97,1111122 
SCCF RECON,ioos:station:SCCF:51:1,2009-12-03T05:00:00Z,26.5545,-82.1715,2.398,35.03,1111122 
SCCF RECON,ioos:station:SCCF:51:1,2009-12-03T06:00:00Z,26.5545,-82.1715,2.35,34.62,1111122 
SCCF RECON,ioos:station:SCCF:51:1,2009-12-03T07:00:00Z,26.5545,-82.1715,2.263,34.01,1111122 
SCCF RECON,ioos:station:SCCF:51:1,2009-12-03T08:00:00Z,26.5545,-82.1715,2.147,33.72,1111122 
SCCF RECON,ioos:station:SCCF:51:1,2009-12-03T09:00:00Z,26.5545,-82.1715,2.01,33.77,1111122 
SCCF RECON,ioos:station:SCCF:51:1,2009-12-03T10:00:00Z,26.5545,-82.1715,1.863,32.99,1111122 
SCCF RECON,ioos:station:SCCF:51:1,2009-12-03T11:00:00Z,26.5545,-82.1715,1.725,32.75,1111122 
SCCF RECON,ioos:station:SCCF:51:1,2009-12-03T12:00:00Z,26.5545,-82.1715,1.592,32.81,1111122 
SCCF RECON,ioos:station:SCCF:51:1,2009-12-03T13:00:00Z,26.5545,-82.1715,1.49,33.06,1111122 
SCCF RECON,ioos:station:SCCF:51:1,2009-12-03T14:00:00Z,26.5545,-82.1715,1.467,33.25,1111122 
SCCF RECON,ioos:station:SCCF:51:1,2009-12-03T15:00:00Z,26.5545,-82.1715,1.553,33.52,1111122 
SCCF RECON,ioos:station:SCCF:51:1,2009-12-03T16:00:00Z,26.5545,-82.1715,1.685,33.59,1111122 
SCCF RECON,ioos:station:SCCF:51:1,2009-12-03T17:00:00Z,26.5545,-82.1715,1.841,33.79,1111122 
SCCF RECON,ioos:station:SCCF:51:1,2009-12-03T18:00:00Z,26.5545,-82.1715,1.941,34.13,1111122 
SCCF RECON,ioos:station:SCCF:51:1,2009-12-03T19:00:00Z,26.5545,-82.1715,1.996,34.09,1111122 
SCCF RECON,ioos:station:SCCF:51:1,2009-12-03T20:00:00Z,26.5545,-82.1715,2.01,33.93,1111122 
SCCF RECON,ioos:station:SCCF:51:1,2009-12-03T21:00:00Z,26.5545,-82.1715,1.992,33.79,1111122 
SCCF RECON,ioos:station:SCCF:51:1,2009-12-03T22:00:00Z,26.5545,-82.1715,1.949,33.62,1111122 
SCCF RECON,ioos:station:SCCF:51:1,2009-12-03T23:00:00Z,26.5545,-82.1715,1.915,33.64,1111122 
SCCF RECON,ioos:station:SCCF:51:1,2009-12-04T00:00:00Z,26.5545,-82.1715,1.907,33.58,1111122 
SCCF RECON,ioos:station:SCCF:51:1,2009-12-04T01:00:00Z,26.5545,-82.1715,1.954,33.67,1111122 
SCCF RECON,ioos:station:SCCF:51:1,2009-12-04T02:00:00Z,26.5545,-82.1715,2.015,33.97,1111122 
SCCF RECON,ioos:station:SCCF:51:1,2009-12-04T03:00:00Z,26.5545,-82.1715,2.111,34.23,1111122 
SCCF RECON,ioos:station:SCCF:51:1,2009-12-04T04:00:00Z,26.5545,-82.1715,2.215,34.66,1111122 
SCCF RECON,ioos:station:SCCF:51:1,2009-12-04T05:00:00Z,26.5545,-82.1715,2.273,34.86,1111122 
SCCF RECON,ioos:station:SCCF:51:1,2009-12-04T06:00:00Z,26.5545,-82.1715,2.277,34.75,1111122 
SCCF RECON,ioos:station:SCCF:51:1,2009-12-04T07:00:00Z,26.5545,-82.1715,2.211,34.51,1111122 
SCCF RECON,ioos:station:SCCF:51:1,2009-12-04T08:00:00Z,26.5545,-82.1715,2.105,34.34,1111122 
SCCF RECON,ioos:station:SCCF:51:1,2009-12-04T09:00:00Z,26.5545,-82.1715,1.971,34.06,1111122 
SCCF RECON,ioos:station:SCCF:51:1,2009-12-04T10:00:00Z,26.5545,-82.1715,1.827,33.92,1111122 
SCCF RECON,ioos:station:SCCF:51:1,2009-12-04T11:00:00Z,26.5545,-82.1715,1.684,33.82,1111122 
SCCF RECON,ioos:station:SCCF:51:1,2009-12-04T12:00:00Z,26.5545,-82.1715,1.547,33.79,1111122 
SCCF RECON,ioos:station:SCCF:51:1,2009-12-04T13:00:00Z,26.5545,-82.1715,1.43,33.77,1111122 
SCCF RECON,ioos:station:SCCF:51:1,2009-12-04T14:00:00Z,26.5545,-82.1715,1.329,33.84,1111122 
SCCF RECON,ioos:station:SCCF:51:1,2009-12-04T15:00:00Z,26.5545,-82.1715,1.333,33.94,1111122 
SCCF RECON,ioos:station:SCCF:51:1,2009-12-04T16:00:00Z,26.5545,-82.1715,1.455,33.85,1111122 
SCCF RECON,ioos:station:SCCF:51:1,2009-12-04T17:00:00Z,26.5545,-82.1715,1.566,33.78,1111122 
SCCF RECON,ioos:station:SCCF:51:1,2009-12-04T18:00:00Z,26.5545,-82.1715,1.703,33.86,1111122 
SCCF RECON,ioos:station:SCCF:51:1,2009-12-04T19:00:00Z,26.5545,-82.1715,1.805,33.43,1111122 
SCCF RECON,ioos:station:SCCF:51:1,2009-12-04T20:00:00Z,26.5545,-82.1715,1.868,33.86,1111122 
SCCF RECON,ioos:station:SCCF:51:1,2009-12-04T21:00:00Z,26.5545,-82.1715,1.882,33.56,1111122 
SCCF RECON,ioos:station:SCCF:51:1,2009-12-04T22:00:00Z,26.5545,-82.1715,1.856,33.46,1111122 
SCCF RECON,ioos:station:SCCF:51:1,2009-12-04T23:00:00Z,26.5545,-82.1715,1.811,33.43,1111122 
SCCF RECON,ioos:station:SCCF:51:1,2009-12-05T00:00:00Z,26.5545,-82.1715,1.768,33.46,1111122 
SCCF RECON,ioos:station:SCCF:51:1,2009-12-05T01:00:00Z,26.5545,-82.1715,1.755,33.44,1111122 
SCCF RECON,ioos:station:SCCF:51:1,2009-12-05T02:00:00Z,26.5545,-82.1715,1.812,33.41,1111122 
SCCF RECON,ioos:station:SCCF:51:1,2009-12-05T03:00:00Z,26.5545,-82.1715,1.891,33.57,1111122 
SCCF RECON,ioos:station:SCCF:51:1,2009-12-05T04:00:00Z,26.5545,-82.1715,1.997,33.48,1111122 
SCCF RECON,ioos:station:SCCF:51:1,2009-12-05T05:00:00Z,26.5545,-82.1715,2.107,33.74,1111122 
SCCF RECON,ioos:station:SCCF:51:1,2009-12-05T06:00:00Z,26.5545,-82.1715,2.172,33.92,1111122 
SCCF RECON,ioos:station:SCCF:51:1,2009-12-05T07:00:00Z,26.5545,-82.1715,2.174,33.8,1111122 
SCCF RECON,ioos:station:SCCF:51:1,2009-12-05T08:00:00Z,26.5545,-82.1715,2.107,33.63,1111122 
SCCF RECON,ioos:station:SCCF:51:1,2009-12-05T09:00:00Z,26.5545,-82.1715,2.022,33.12,1111122 
SCCF RECON,ioos:station:SCCF:51:1,2009-12-05T10:00:00Z,26.5545,-82.1715,1.92,32.79,1111122 
SCCF RECON,ioos:station:SCCF:51:1,2009-12-05T11:00:00Z,26.5545,-82.1715,1.802,32.63,1111122 
SCCF RECON,ioos:station:SCCF:51:1,2009-12-05T12:00:00Z,26.5545,-82.1715,1.67,32.16,1111122 
SCCF RECON,ioos:station:SCCF:51:1,2009-12-05T13:00:00Z,26.5545,-82.1715,1.558,32.06,1111122 
SCCF RECON,ioos:station:SCCF:51:1,2009-12-05T14:00:00Z,26.5545,-82.1715,1.478,31.93,1111122 
SCCF RECON,ioos:station:SCCF:51:1,2009-12-05T15:00:00Z,26.5545,-82.1715,1.459,32.06,1111122 
SCCF RECON,ioos:station:SCCF:51:1,2009-12-05T16:00:00Z,26.5545,-82.1715,1.524,32.03,1111122 
SCCF RECON,ioos:station:SCCF:51:1,2009-12-05T17:00:00Z,26.5545,-82.1715,1.651,31.97,1111122 
SCCF RECON,ioos:station:SCCF:51:1,2009-12-05T18:00:00Z,26.5545,-82.1715,1.767,32.23,1111122 
SCCF RECON,ioos:station:SCCF:51:1,2009-12-05T19:00:00Z,26.5545,-82.1715,1.836,32.87,1111122 
SCCF RECON,ioos:station:SCCF:51:1,2009-12-05T20:00:00Z,26.5545,-82.1715,1.825,32.58,1111122 
SCCF RECON,ioos:station:SCCF:51:1,2009-12-05T21:00:00Z,26.5545,-82.1715,1.875,32.49,1111122 
SCCF RECON,ioos:station:SCCF:51:1,2009-12-05T22:00:00Z,26.5545,-82.1715,1.845,32.66,1111122 
SCCF RECON,ioos:station:SCCF:51:1,2009-12-05T23:00:00Z,26.5545,-82.1715,1.764,32.93,1111122 
SCCF RECON,ioos:station:SCCF:51:1,2009-12-06T00:00:00Z,26.5545,-82.1715,1.703,33.01,1111122 
SCCF RECON,ioos:station:SCCF:51:1,2009-12-06T01:00:00Z,26.5545,-82.1715,1.647,33.12,1111122 
SCCF RECON,ioos:station:SCCF:51:1,2009-12-06T02:00:00Z,26.5545,-82.1715,1.634,33.23,1111122 
SCCF RECON,ioos:station:SCCF:51:1,2009-12-06T03:00:00Z,26.5545,-82.1715,1.669,33.28,1111122 
SCCF RECON,ioos:station:SCCF:51:1,2009-12-06T04:00:00Z,26.5545,-82.1715,1.745,32.7,1111122 
SCCF RECON,ioos:station:SCCF:51:1,2009-12-06T05:00:00Z,26.5545,-82.1715,1.825,32.55,1111122 
SCCF RECON,ioos:station:SCCF:51:1,2009-12-06T06:00:00Z,26.5545,-82.1715,1.941,33.3,1111122 
SCCF RECON,ioos:station:SCCF:51:1,2009-12-06T07:00:00Z,26.5545,-82.1715,2.01,33.72,1111122 
SCCF RECON,ioos:station:SCCF:51:1,2009-12-06T08:00:00Z,26.5545,-82.1715,2.003,33.73,1111122 
SCCF RECON,ioos:station:SCCF:51:1,2009-12-06T09:00:00Z,26.5545,-82.1715,1.957,33.51,1111122 
SCCF RECON,ioos:station:SCCF:51:1,2009-12-06T10:00:00Z,26.5545,-82.1715,1.883,33.3,1111122 
SCCF RECON,ioos:station:SCCF:51:1,2009-12-06T11:00:00Z,26.5545,-82.1715,1.791,32.93,1111122 
SCCF RECON,ioos:station:SCCF:51:1,2009-12-06T12:00:00Z,26.5545,-82.1715,1.688,32.87,1111122 
SCCF RECON,ioos:station:SCCF:51:1,2009-12-06T13:00:00Z,26.5545,-82.1715,1.59,32.68,1111122 
SCCF RECON,ioos:station:SCCF:51:1,2009-12-06T14:00:00Z,26.5545,-82.1715,1.498,33.06,1111122 
SCCF RECON,ioos:station:SCCF:51:1,2009-12-06T15:00:00Z,26.5545,-82.1715,1.417,33.17,1111122 
SCCF RECON,ioos:station:SCCF:51:1,2009-12-06T16:00:00Z,26.5545,-82.1715,1.396,33.11,1111122 
SCCF RECON,ioos:station:SCCF:51:1,2009-12-06T17:00:00Z,26.5545,-82.1715,1.464,32.55,1111122 
SCCF RECON,ioos:station:SCCF:51:1,2009-12-06T18:00:00Z,26.5545,-82.1715,1.562,33.21,1111122 
SCCF RECON,ioos:station:SCCF:51:1,2009-12-06T19:00:00Z,26.5545,-82.1715,1.682,33.52,1111122 
SCCF RECON,ioos:station:SCCF:51:1,2009-12-06T20:00:00Z,26.5545,-82.1715,1.808,33.47,1111122 
SCCF RECON,ioos:station:SCCF:51:1,2009-12-06T21:00:00Z,26.5545,-82.1715,1.912,33.37,1111122 
SCCF RECON,ioos:station:SCCF:51:1,2009-12-06T22:00:00Z,26.5545,-82.1715,1.976,33.39,1111122 
SCCF RECON,ioos:station:SCCF:51:1,2009-12-06T23:00:00Z,26.5545,-82.1715,1.983,33.58,1111122 
SCCF RECON,ioos:station:SCCF:51:1,2009-12-07T00:00:00Z,26.5545,-82.1715,1.92,33.44,1111122 
SCCF RECON,ioos:station:SCCF:51:1,2009-12-07T01:00:00Z,26.5545,-82.1715,1.849,33.26,1111122 
SCCF RECON,ioos:station:SCCF:51:1,2009-12-07T02:00:00Z,26.5545,-82.1715,1.806,33.05,1111122 
SCCF RECON,ioos:station:SCCF:51:1,2009-12-07T03:00:00Z,26.5545,-82.1715,1.79,33.08,1111122 
SCCF RECON,ioos:station:SCCF:51:1,2009-12-07T04:00:00Z,26.5545,-82.1715,1.82,33.22,1111122 
SCCF RECON,ioos:station:SCCF:51:1,2009-12-07T05:00:00Z,26.5545,-82.1715,1.898,33.47,1111122 
SCCF RECON,ioos:station:SCCF:51:1,2009-12-07T06:00:00Z,26.5545,-82.1715,1.97,33.58,1111122 
SCCF RECON,ioos:station:SCCF:51:1,2009-12-07T07:00:00Z,26.5545,-82.1715,2.044,33.81,1111122 
SCCF RECON,ioos:station:SCCF:51:1,2009-12-07T08:00:00Z,26.5545,-82.1715,2.064,33.87,1111122 
SCCF RECON,ioos:station:SCCF:51:1,2009-12-07T09:00:00Z,26.5545,-82.1715,2.058,33.75,1111122 
SCCF RECON,ioos:station:SCCF:51:1,2009-12-07T10:00:00Z,26.5545,-82.1715,2.027,33.64,1111122 
SCCF RECON,ioos:station:SCCF:51:1,2009-12-07T11:00:00Z,26.5545,-82.1715,1.97,33.48,1111122 
SCCF RECON,ioos:station:SCCF:51:1,2009-12-07T12:00:00Z,26.5545,-82.1715,1.9,33.2,1111122 
SCCF RECON,ioos:station:SCCF:51:1,2009-12-07T13:00:00Z,26.5545,-82.1715,1.808,33.2,1111122 
SCCF RECON,ioos:station:SCCF:51:1,2009-12-07T14:00:00Z,26.5545,-82.1715,1.699,33.15,1111122 
SCCF RECON,ioos:station:SCCF:51:1,2009-12-07T15:00:00Z,26.5545,-82.1715,1.595,33.07,1111122 
SCCF RECON,ioos:station:SCCF:51:1,2009-12-07T16:00:00Z,26.5545,-82.1715,1.513,33.02,1111122 
SCCF RECON,ioos:station:SCCF:51:1,2009-12-07T17:00:00Z,26.5545,-82.1715,1.52,33.02,1111122 
SCCF RECON,ioos:station:SCCF:51:1,2009-12-07T19:00:00Z,26.5545,-82.1715,1.694,32.1,1111122 
SCCF RECON,ioos:station:SCCF:51:1,2009-12-07T20:00:00Z,26.5545,-82.1715,1.82,31.45,1111122 
SCCF RECON,ioos:station:SCCF:51:1,2009-12-07T21:00:00Z,26.5545,-82.1715,1.908,32.35,1111122 
SCCF RECON,ioos:station:SCCF:51:1,2009-12-07T22:00:00Z,26.5545,-82.1715,1.95,32.5,1111122 
SCCF RECON,ioos:station:SCCF:51:1,2009-12-07T23:00:00Z,26.5545,-82.1715,1.962,32.27,1111122 
SCCF RECON,ioos:station:SCCF:51:1,2009-12-08T00:00:00Z,26.5545,-82.1715,1.948,32.27,1111122 
SCCF RECON,ioos:station:SCCF:51:1,2009-12-08T01:00:00Z,26.5545,-82.1715,1.9,32.24,1111122 
SCCF RECON,ioos:station:SCCF:51:1,2009-12-08T02:00:00Z,26.5545,-82.1715,1.83,32.09,1111122 
SCCF RECON,ioos:station:SCCF:51:1,2009-12-08T03:00:00Z,26.5545,-82.1715,1.762,31.98,1111122 
SCCF RECON,ioos:station:SCCF:51:1,2009-12-08T04:00:00Z,26.5545,-82.1715,1.74,31.96,1111122 
SCCF RECON,ioos:station:SCCF:51:1,2009-12-08T05:00:00Z,26.5545,-82.1715,1.767,31.83,1111122 
SCCF RECON,ioos:station:SCCF:51:1,2009-12-08T06:00:00Z,26.5545,-82.1715,1.8,32.24,1111122 
SCCF RECON,ioos:station:SCCF:51:1,2009-12-08T07:00:00Z,26.5545,-82.1715,1.86,33.07,1111122 
SCCF RECON,ioos:station:SCCF:51:1,2009-12-08T08:00:00Z,26.5545,-82.1715,1.93,33.28,1111122 
SCCF RECON,ioos:station:SCCF:51:1,2009-12-08T09:00:00Z,26.5545,-82.1715,1.999,33.53,1111122 
SCCF RECON,ioos:station:SCCF:51:1,2009-12-08T10:00:00Z,26.5545,-82.1715,2.04,33.54,1111122 
SCCF RECON,ioos:station:SCCF:51:1,2009-12-08T11:00:00Z,26.5545,-82.1715,2.041,33.52,1111122 
SCCF RECON,ioos:station:SCCF:51:1,2009-12-08T12:00:00Z,26.5545,-82.1715,1.999,33.53,1111122 
SCCF RECON,ioos:station:SCCF:51:1,2009-12-08T13:00:00Z,26.5545,-82.1715,1.93,33.46,1111122 
SCCF RECON,ioos:station:SCCF:51:1,2009-12-08T14:00:00Z,26.5545,-82.1715,1.85,33.19,1111122 
SCCF RECON,ioos:station:SCCF:51:1,2009-12-08T15:00:00Z,26.5545,-82.1715,1.772,33.28,1111122 
SCCF RECON,ioos:station:SCCF:51:1,2009-12-08T16:00:00Z,26.5545,-82.1715,1.697,33.3,1111122 
SCCF RECON,ioos:station:SCCF:51:1,2009-12-08T17:00:00Z,26.5545,-82.1715,1.646,33.23,1111122 
SCCF RECON,ioos:station:SCCF:51:1,2009-12-08T18:00:00Z,26.5545,-82.1715,1.675,33.28,1111122 
SCCF RECON,ioos:station:SCCF:51:1,2009-12-08T19:00:00Z,26.5545,-82.1715,1.753,33.15,1111122 
SCCF RECON,ioos:station:SCCF:51:1,2009-12-08T20:00:00Z,26.5545,-82.1715,1.857,33.42,1111122 
SCCF RECON,ioos:station:SCCF:51:1,2009-12-08T21:00:00Z,26.5545,-82.1715,1.968,33.79,1111122 
SCCF RECON,ioos:station:SCCF:51:1,2009-12-08T22:00:00Z,26.5545,-82.1715,2.034,33.79,1111122 
SCCF RECON,ioos:station:SCCF:51:1,2009-12-08T23:00:00Z,26.5545,-82.1715,2.06,34.04,1111122 
SCCF RECON,ioos:station:SCCF:51:1,2009-12-09T00:00:00Z,26.5545,-82.1715,2.061,34.0,1111122 
SCCF RECON,ioos:station:SCCF:51:1,2009-12-09T01:00:00Z,26.5545,-82.1715,2.04,33.9,1111122 
SCCF RECON,ioos:station:SCCF:51:1,2009-12-09T02:00:00Z,26.5545,-82.1715,1.98,33.4,1111122 
SCCF RECON,ioos:station:SCCF:51:1,2009-12-09T03:00:00Z,26.5545,-82.1715,1.92,33.21,1111122 
SCCF RECON,ioos:station:SCCF:51:1,2009-12-09T04:00:00Z,26.5545,-82.1715,1.86,33.39,1111122 
SCCF RECON,ioos:station:SCCF:51:1,2009-12-09T05:00:00Z,26.5545,-82.1715,1.808,33.22,1111122 
SCCF RECON,ioos:station:SCCF:51:1,2009-12-09T06:00:00Z,26.5545,-82.1715,1.78,33.23,1111122 
SCCF RECON,ioos:station:SCCF:51:1,2009-12-09T07:00:00Z,26.5545,-82.1715,1.801,32.94,1111122 
SCCF RECON,ioos:station:SCCF:51:1,2009-12-09T08:00:00Z,26.5545,-82.1715,1.859,33.14,1111122 
SCCF RECON,ioos:station:SCCF:51:1,2009-12-09T09:00:00Z,26.5545,-82.1715,1.939,33.09,1111122 
SCCF RECON,ioos:station:SCCF:51:1,2009-12-09T10:00:00Z,26.5545,-82.1715,2.004,33.75,1111122 
SCCF RECON,ioos:station:SCCF:51:1,2009-12-09T11:00:00Z,26.5545,-82.1715,2.04,33.93,1111122 
SCCF RECON,ioos:station:SCCF:51:1,2009-12-09T12:00:00Z,26.5545,-82.1715,2.03,33.53,1111122 
SCCF RECON,ioos:station:SCCF:51:1,2009-12-09T13:00:00Z,26.5545,-82.1715,2.001,33.49,1111122 
SCCF RECON,ioos:station:SCCF:51:1,2009-12-09T14:00:00Z,26.5545,-82.1715,1.96,33.08,1111122 
SCCF RECON,ioos:station:SCCF:51:1,2009-12-09T15:00:00Z,26.5545,-82.1715,1.884,32.93,1111122 
SCCF RECON,ioos:station:SCCF:51:1,2009-12-09T16:00:00Z,26.5545,-82.1715,1.806,32.89,1111122 
SCCF RECON,ioos:station:SCCF:51:1,2009-12-09T17:00:00Z,26.5545,-82.1715,1.751,32.93,1111122 
SCCF RECON,ioos:station:SCCF:51:1,2009-12-09T18:00:00Z,26.5545,-82.1715,1.712,32.86,1111122 
SCCF RECON,ioos:station:SCCF:51:1,2009-12-09T19:00:00Z,26.5545,-82.1715,1.746,32.89,1111122 
SCCF RECON,ioos:station:SCCF:51:1,2009-12-09T20:00:00Z,26.5545,-82.1715,1.824,32.99,1111122 
SCCF RECON,ioos:station:SCCF:51:1,2009-12-09T21:00:00Z,26.5545,-82.1715,1.919,32.94,1111122 
SCCF RECON,ioos:station:SCCF:51:1,2009-12-09T22:00:00Z,26.5545,-82.1715,2.01,33.91,1111122 
SCCF RECON,ioos:station:SCCF:51:1,2009-12-09T23:00:00Z,26.5545,-82.1715,2.069,33.78,1111122 
SCCF RECON,ioos:station:SCCF:51:1,2009-12-10T00:00:00Z,26.5545,-82.1715,2.103,34.04,1111122 
SCCF RECON,ioos:station:SCCF:51:1,2009-12-10T01:00:00Z,26.5545,-82.1715,2.106,34.1,1111122 
SCCF RECON,ioos:station:SCCF:51:1,2009-12-10T02:00:00Z,26.5545,-82.1715,2.071,33.47,1111122 
SCCF RECON,ioos:station:SCCF:51:1,2009-12-10T03:00:00Z,26.5545,-82.1715,2.002,32.91,1111122 
SCCF RECON,ioos:station:SCCF:51:1,2009-12-10T04:00:00Z,26.5545,-82.1715,1.911,32.54,1111122 
SCCF RECON,ioos:station:SCCF:51:1,2009-12-10T05:00:00Z,26.5545,-82.1715,1.821,32.47,1111122 
SCCF RECON,ioos:station:SCCF:51:1,2009-12-10T06:00:00Z,26.5545,-82.1715,1.732,32.34,1111122 
SCCF RECON,ioos:station:SCCF:51:1,2009-12-10T07:00:00Z,26.5545,-82.1715,1.67,32.06,1111122 
SCCF RECON,ioos:station:SCCF:51:1,2009-12-10T08:00:00Z,26.5545,-82.1715,1.665,32.08,1111122 
SCCF RECON,ioos:station:SCCF:51:1,2009-12-10T09:00:00Z,26.5545,-82.1715,1.729,32.33,1111122 
SCCF RECON,ioos:station:SCCF:51:1,2009-12-10T10:00:00Z,26.5545,-82.1715,1.82,32.48,1111122 
SCCF RECON,ioos:station:SCCF:51:1,2009-12-10T11:00:00Z,26.5545,-82.1715,1.91,33.01,1111122 
SCCF RECON,ioos:station:SCCF:51:1,2009-12-10T12:00:00Z,26.5545,-82.1715,1.962,33.61,1111122 
SCCF RECON,ioos:station:SCCF:51:1,2009-12-10T13:00:00Z,26.5545,-82.1715,2.001,33.38,1111122 
SCCF RECON,ioos:station:SCCF:51:1,2009-12-10T14:00:00Z,26.5545,-82.1715,2.003,33.52,1111122 
SCCF RECON,ioos:station:SCCF:51:1,2009-12-10T15:00:00Z,26.5545,-82.1715,1.982,32.98,1111122 
SCCF RECON,ioos:station:SCCF:51:1,2009-12-10T16:00:00Z,26.5545,-82.1715,1.953,32.67,1111122 
SCCF RECON,ioos:station:SCCF:51:1,2009-12-10T17:00:00Z,26.5545,-82.1715,1.901,32.16,1111122 
SCCF RECON,ioos:station:SCCF:51:1,2009-12-10T18:00:00Z,26.5545,-82.1715,1.84,32.15,1111122 
SCCF RECON,ioos:station:SCCF:51:1,2009-12-10T19:00:00Z,26.5545,-82.1715,1.801,32.3,1111122 
SCCF RECON,ioos:station:SCCF:51:1,2009-12-10T20:00:00Z,26.5545,-82.1715,1.817,32.2,1111122 
SCCF RECON,ioos:station:SCCF:51:1,2009-12-10T21:00:00Z,26.5545,-82.1715,1.897,32.12,1111122 
SCCF RECON,ioos:station:SCCF:51:1,2009-12-10T22:00:00Z,26.5545,-82.1715,2.015,33.03,1111122 
SCCF RECON,ioos:station:SCCF:51:1,2009-12-10T23:00:00Z,26.5545,-82.1715,2.105,33.24,1111122 
SCCF RECON,ioos:station:SCCF:51:1,2009-12-11T00:00:00Z,26.5545,-82.1715,2.129,33.3,1111122 
SCCF RECON,ioos:station:SCCF:51:1,2009-12-11T01:00:00Z,26.5545,-82.1715,2.106,33.12,1111122 
SCCF RECON,ioos:station:SCCF:51:1,2009-12-11T02:00:00Z,26.5545,-82.1715,2.058,32.97,1111122 
SCCF RECON,ioos:station:SCCF:51:1,2009-12-11T03:00:00Z,26.5545,-82.1715,1.998,32.41,1111122 
SCCF RECON,ioos:station:SCCF:51:1,2009-12-11T04:00:00Z,26.5545,-82.1715,1.916,32.26,1111122 
SCCF RECON,ioos:station:SCCF:51:1,2009-12-11T05:00:00Z,26.5545,-82.1715,1.818,32.1,1111122 
SCCF RECON,ioos:station:SCCF:51:1,2009-12-11T06:00:00Z,26.5545,-82.1715,1.714,31.9,1111122 
SCCF RECON,ioos:station:SCCF:51:1,2009-12-11T07:00:00Z,26.5545,-82.1715,1.615,31.83,1111122 
SCCF RECON,ioos:station:SCCF:51:1,2009-12-11T08:00:00Z,26.5545,-82.1715,1.531,31.9,1111122 
SCCF RECON,ioos:station:SCCF:51:1,2009-12-11T09:00:00Z,26.5545,-82.1715,1.475,31.96,1111122 
SCCF RECON,ioos:station:SCCF:51:1,2009-12-11T10:00:00Z,26.5545,-82.1715,1.484,31.99,1111122 
SCCF RECON,ioos:station:SCCF:51:1,2009-12-11T11:00:00Z,26.5545,-82.1715,1.567,32.04,1111122 
SCCF RECON,ioos:station:SCCF:51:1,2009-12-11T12:00:00Z,26.5545,-82.1715,1.675,32.16,1111122 
SCCF RECON,ioos:station:SCCF:51:1,2009-12-11T13:00:00Z,26.5545,-82.1715,1.765,32.6,1111122 
SCCF RECON,ioos:station:SCCF:51:1,2009-12-11T14:00:00Z,26.5545,-82.1715,1.834,33.1,1111122 
SCCF RECON,ioos:station:SCCF:51:1,2009-12-11T15:00:00Z,26.5545,-82.1715,1.87,33.28,1111122 
SCCF RECON,ioos:station:SCCF:51:1,2009-12-11T16:00:00Z,26.5545,-82.1715,1.858,32.63,1111122 
SCCF RECON,ioos:station:SCCF:51:1,2009-12-11T17:00:00Z,26.5545,-82.1715,1.812,32.01,1111122 
SCCF RECON,ioos:station:SCCF:51:1,2009-12-11T18:00:00Z,26.5545,-82.1715,1.776,31.89,1111122 